Terug naar catalogus

FALCON 9 R/B

ActiefHEO
NORAD 58964·ROCKET BODY·🇺🇸 United States

Gelanceerd Feb 15, 2024 vanaf Cape Canaveral Space Force Station

Loading…

Volgende Passages (komende 24 uur)

TLE

VerouderdSource: Space-Track

Epoch: Feb 15, 2024, 06:40 UTC

1 58964U 24030B   24046.27792824 -.00014702  00000-0  00000-0 0  9993
2 58964  28.5100  65.0800 9704700 239.9600   5.0000  0.08200507    02

Volg FALCON 9 R/B in realtime met AllMySat

Download on the App Store